This is the latest recevied weather packets stored in our database for station/object OK1FET-5. If no packets are shown the sender has not sent any weather packets the latest 10 day(s).
| Time | Temp. | Humidity | Pressure | Rain* | Wind** | Luminosity | Snow |
|---|---|---|---|---|---|---|---|
| 1777983047 | 30° C | 36% | 1006.9 hPa | - | - | - | - |
| 1777982751 | 30° C | 36% | 1006.9 hPa | - | - | - | - |
| 1777982454 | 30.56° C | 36% | 1007 hPa | - | - | - | - |
| 1777982158 | 30° C | 37% | 1007.1 hPa | - | - | - | - |
| 1777981862 | 30.56° C | 36% | 1007.1 hPa | - | - | - | - |
| 1777981565 | 31.11° C | 35% | 1007 hPa | - | - | - | - |
| 1777981269 | 31.67° C | 33% | 1007 hPa | - | - | - | - |
| 1777980973 | 31.67° C | 35% | 1007.2 hPa | - | - | - | - |
| 1777980676 | 31.11° C | 36% | 1007.2 hPa | - | - | - | - |
| 1777980380 | 30° C | 37% | 1007.3 hPa | - | - | - | - |
| 1777980084 | 29.44° C | 37% | 1007.3 hPa | - | - | - | - |
| 1777979788 | 30.56° C | 34% | 1007.4 hPa | - | - | - | - |
| 1777979491 | 31.11° C | 36% | 1007.4 hPa | - | - | - | - |
| 1777979195 | 30.56° C | 36% | 1007.4 hPa | - | - | - | - |
| 1777978899 | 29.44° C | 37% | 1007.5 hPa | - | - | - | - |
| 1777978603 | 28.89° C | 35% | 1007.5 hPa | - | - | - | - |
| 1777978307 | 28.89° C | 35% | 1007.5 hPa | - | - | - | - |
| 1777978011 | 28.33° C | 37% | 1007.6 hPa | - | - | - | - |
| 1777977715 | 27.78° C | 36% | 1007.6 hPa | - | - | - | - |
| 1777977419 | 27.78° C | 36% | 1007.7 hPa | - | - | - | - |
| 1777977123 | 28.33° C | 35% | 1007.8 hPa | - | - | - | - |
| 1777976827 | 29.44° C | 37% | 1007.9 hPa | - | - | - | - |
| 1777976531 | 29.44° C | 37% | 1008 hPa | - | - | - | - |
| 1777976235 | 27.78° C | 38% | 1008.1 hPa | - | - | - | - |
| 1777975939 | 26.67° C | 38% | 1008 hPa | - | - | - | - |
* Rain since midnight (hover to see other rain measurements)
** Current wind speed in m/s (hover to see current wind gust speed)